Simultaneous Nadir Overpasses (SNOs) Predictions

Prediction of SNOs between LANDSAT-8 and METOP-B Satellite Orbit:

Table of predicted SNOs for the next 14.0 days since TLE Epoch: 6/10/2015
Index Date (LANDSAT-8) Time (LANDSAT-8) Lat,Lon (LANDSAT-8) SZA (LANDSAT-8 ) Date (METOP-B) Time (METOP-B) Lat,Lon (METOP-B) SZA (METOP-B ) Distance(km) Time Diff (sec)
1 06/13/2015 08:13:57 81.11, 96.26 60.07 06/13/2015 08:13:22 81.11, 96.32 60.07 1.17 35
2 06/13/2015 09:03:23 -81.13, -95.79 119.89 06/13/2015 09:04:01 -81.13, -95.72 119.86 1.20 38
3 06/16/2015 03:48:12 81.12, 162.86 59.95 06/16/2015 03:47:44 81.11, 162.78 59.92 1.56 28
4 06/16/2015 04:37:38 -81.14, -29.16 120.01 06/16/2015 04:38:23 -81.14, -29.25 120.00 1.67 45
5 06/18/2015 23:22:28 81.12,-130.68 59.86 06/18/2015 23:22:07 81.11,-130.83 59.83 2.77 21
6 06/19/2015 00:11:54 -81.14, 37.33 120.09 06/19/2015 00:12:46 -81.14, 37.16 120.09 3.00 52
7 06/21/2015 18:56:44 81.11, -64.34 59.80 06/21/2015 18:56:30 81.11, -64.49 59.78 2.56 14
8 06/21/2015 19:46:10 -81.14, 103.69 120.14 06/21/2015 19:47:09 -81.13, 103.52 120.14 2.84 59
9 06/24/2015 14:30:58 81.12, 2.23 59.83 06/24/2015 14:30:51 81.12, 2.17 59.82 1.00 7




NCC Satellite Simultaneous Nadir Overpasses (SNOs) Prediction Service
